Location: PSU-Greenbush Astrophysical Observatory
(37.5140°N, 94.9880°W)
Time: 13:40:44
(UTC-06:00)

Altair - Pass Details

Date: 31 January 2020
Orbit: 1502 x 1682 km, 47.2° (Epoch: 19 February)

Event Time Altitude Azimuth Distance (km) Brightness Sun altitude
Rises 15:31:56 0° 294° (WNW) 4,931 10.4 20.9°
Reaches altitude 10° 15:36:00 10° 281° (WNW) 3,927 10.2 20.4°
Maximum altitude 15:43:11 23° 235° (SW) 2,993 11.8 19.3°
Drops below altitude 10° 15:50:16 10° 188° (S) 3,832 10.5 18.2°
Sets 15:54:13 0° 174° (S) 4,784 10.6 17.6°
